825  
ASUS41 KLWX 211210  
RWRLWX  
 
REGIONAL WEATHER ROUNDUP  
NATIONAL WEATHER SERVICE BALTIMORE MD/WASHINGTON DC  
800 AM EDT MON OCT 21 2019  
 
NOTE: "FAIR" INDICATES FEW OR NO CLOUDS BELOW 12,000 FEET  
WITH NO SIGNIFICANT WEATHER AND/OR S TO VISIBILITY
.  
TC=TEMPERATURE CELSIUS  
 
* =NON NWS SITE. STATION DOES NOT REPORT PRECIPITATION (E.G. RAIN,  
SNOW, ETC.), THUNDER, OR FOG.
 
 
DCZ001-MDZ009-015-VAZ040>042-051-053>054-211300-  
WASHINGTON METRO  
 
CITY SKY/WX TMP DP RH WIND PRES REMARKS
 
WASHINGTON NAT CLOUDY 55 50 83 N10 30.07R  
DULLES CLOUDY 54 48 80 N7 30.07R  
ANDREWS AFB CLOUDY 53 49 87 N8 30.06R  
FT BELVOIR CLOUDY 55 49 80 N5 30.07R  
QUANTICO MOCLDY 57 50 77 NE8 30.08R  
COLLEGE PARK* CLOUDY 53 46 75 N5 30.07R  
LEESBURG* CLOUDY 52 50 93 N5 30.09S  
MANASSAS* CLOUDY 54 50 86 N7 30.08R  
GAITHERSBURG* CLOUDY 52 49 89 CALM 30.08R  
 

 
 
MDZ006>007-011-014-211300-  
BALTIMORE METRO  
 
CITY SKY/WX TMP DP RH WIND PRES REMARKS
 
BWI AIRPORT MOCLDY 54 49 83 N3 30.07R  
MD SCIENCE CTR N/A 55 49 80 MISG 30.06R  
MARTIN STATE PTCLDY 52 52 100 NW7 30.08R  
ANNAPOLIS CLOUDY 55 51 86 N9 30.06R  
ABERDEEN* CLEAR 50 48 93 CALM 30.06R  
FORT MEADE* CLOUDY 52 50 93 N3 30.10R  
 

 
 
MDZ012-015-019>023-211300-  
MARYLAND EASTERN SHORE  
 
CITY SKY/WX TMP DP RH WIND PRES REMARKS
 
OCEAN CITY CLOUDY 55 54 96 N10 30.01R  
SALISBURY CLOUDY 56 52 86 N9 30.02R  
BAY BRIDGE AP* CLOUDY 55 52 88 N8 30.06R  
CAMBRIDGE* CLOUDY 55 54 94 MISG 30.04R  
EASTON* CLOUDY 55 54 94 N10 30.07R  
 

 
 
MDZ017>025-211300-  
SOUTHERN MARYLAND  
 
CITY SKY/WX TMP DP RH WIND PRES REMARKS
 
PATUXENT RIVER CLOUDY 57 54 89 N10 30.04R  
ST INIGOES CLOUDY 59 53 80 VRB5 30.03R  
LEONARDTOWN* NOT AVBL  
 

 
 
MDZ003>005-211300-  
NORTH CENTRAL MARYLAND  
 
CITY SKY/WX TMP DP RH WIND PRES REMARKS
 
FREDERICK* CLOUDY 55 50 82 N5 30.08R  
HAGERSTOWN APT CLOUDY 51 47 86 CALM 30.08R  
 

 
 
MDZ501>502-211300-  
WESTERN MARYLAND  
 
CITY SKY/WX TMP DP RH WIND PRES REMARKS
 
OAKLAND* FAIR 45 45 100 E8 30.05S  
CUMBERLAND* CLOUDY 53 51 94 N5 30.12S  
 

 
 
VAZ025>031-211300-  
SHENANDOAH VALLEY  
 
CITY SKY/WX TMP DP RH WIND PRES REMARKS
 
WINCHESTER* CLOUDY 50 50 100 CALM 30.07S FOG  
FRONT ROYAL* CLOUDY 50 50 100 W3 30.08R VSB 3/4  
LURAY* CLOUDY 52 52 100 CALM 30.09R FOG  
NEW MARKET* CLOUDY 51 50 96 CALM 30.09R  
STAUNTON* CLOUDY 53 51 94 CALM 30.11R  
WAYNESBORO* CLOUDY 52 52 100 NW3 30.09R  
 

 
 
WVZ021-048>050-054>055-211300-  
EASTERN WEST VIRGINIA PANHANDLE  
 
CITY SKY/WX TMP DP RH WIND PRES REMARKS
 
MARTINSBURG CLOUDY 53 48 83 NW5 30.07R  
PETERSBURG* CLOUDY 52 51 96 CALM 30.10R  
 

 
 
VAZ036>039-050-211300-  
CENTRAL FOOTHILLS  
 
CITY SKY/WX TMP DP RH WIND PRES REMARKS
 
CHARLOTTESVILL FOG 48 44 86 CALM 30.07R VSB 1/4  
CULPEPER* NOT AVBL  
ORANGE* FOG 45 45 100 CALM 30.07R VSB 1/4  
GORDONSVILLE* FAIR 44 44 100 CALM 30.06S FOG  
WARRENTON* CLOUDY 54 49 81 N5 30.07R  
 

 
 
VAZ055>057-211300-  
NORTH AND CENTRAL PIEDMONT  
 
CITY SKY/WX TMP DP RH WIND PRES REMARKS
 
FREDERICKSBRG* CLOUDY 55 53 94 N6 30.06S  
STAFFORD* CLOUDY 55 55 100 N5 30.11R  
 

 
 
NCZ024-NYZ072-PAZ021-071-VAZ022-071-211300-  
OTHER REGIONAL OBSERVATIONS  
 
CITY SKY/WX TMP DP RH WIND PRES REMARKS
 
NEW YORK CITY FAIR 52 45 77 VRB3 30.07R  
PHILADELPHIA FAIR 51 46 83 N9 30.06R  
PITTSBURGH FOG 46 45 96 E5 30.02S VSB 1/8  
ROANOKE CLOUDY 53 52 96 CALM 30.09R FOG  
RICHMOND DRIZZLE 54 52 93 N9 30.05R  
RALEIGH MOCLDY 53 53 100 NE3 30.06R  
 

 
 
ANZ530>537-211300-  
MARINE OBSERVATIONS  
 
STATION/POSITION TIME TEMP WIND PRES
 
AIR SEA DIR/SP/G  
(UTC) (F) (DEG/KT/KT) (MB)  
THOMAS PT LIGHT 1200 56 63 350/ 16/ 17 1018.6R  
BALT KEY BRIDGE 1124 54 10/ 11/ 13 1017.4  
LEWISETTA 1124 56 61 360/ 9/ 13 1016.9  
SOLOMONS ISLAND 1124 56 65 340/ 6/ 10 1016.7  
PINEY POINT 1130 360/ 11/ 13 N/A  
 

 
 
 
 
CLICK HERE TO GO TO PREVIOUS BULLETINS.

The Nexlab VA Page
The Nexlab MD Page
The Nexlab WV Page Main Text Page